Content
SEND FEEDBACK

Daily
Averages
Monthly
Summary
Canada

VANCOUVER - CITY HALL, BRITISH COLUMBIA


Home > North America > Canada > British Columbia
Elevation: 283 feet     Latitude: 49 17N     Longitude: 123 07W

WEATHER
 
SELECT A DAY
Number of Records: 170,370;   Date Range: 4/23/95 - 9/19/14
 
SHARE

PRINT THIS DATA

[ ← Previous Day ]
WEATHER ALMANAC - APRIL 24, 2013
[ Next Day → ]
[ °C ]   °F
Weather ElementAverageHighLow
Temperature50.7 °F57.7 °F (2:00 pm)43.5 °F (6:00 am)
Dewpoint38.1 °F44 °F (5:00 pm)34.3 °F (4:00 am)
Humidity60.5 %71 % (6:00 am)40 % (11:00 am)
Barometer30.23 in30.33 in (3:00 am)30.07 in (11:00 pm)
Wind Speed2.3 mph4.6 mph (11:00 pm)
Weather ElementAverage
Wind DirectionSSE (164 °)

Weather ElementTotal
Precipitation---
Heating Degree Days14.4 (Base 65)
Growing Degree Days0.6 (Base 50)
Averaged from 25 records on April 24, 2013
WEATHER CONDITIONS BREAKOUT
WIND DIRECTION BREAKOUT
WEATHER BY HOUR - APRIL 24, 2013
[ °C ]   °F
Local TimeTemperatureDewpointHumidityBarometerVisibilityWind DirectionWind SpeedGust SpeedPrecipitationEventsConditions
1:00 AM46.8 °F34.9 °F63 %30.32 inNorth (10°)3.5 mph
2:00 AM46.0 °F35.1 °F66 %30.32 inNNW (340°)2.3 mph
3:00 AM45.5 °F35.1 °F67 %30.33 inNorth (360°)1.2 mph
4:00 AM44.8 °F34.3 °F67 %30.33 inNorth (360°)3.5 mph
5:00 AM44.0 °F35.0 °F61 %30.33 inNorth (10°)2.3 mph
5:00 AM44.4 °F34.9 °F69 %30.33 inNorth (10°)2.3 mph
6:00 AM43.5 °F34.5 °F71 %30.33 inNNE (20°)1.2 mph
7:00 AM44.2 °F35.1 °F70 %30.32 inNNE (30°)1.2 mph
8:00 AM51.6 °F37.6 °F59 %30.32 inCalm
10:00 AM52.0 °F34.9 °F52 %30.30 inSouth (190°)1.2 mph
11:00 AM55.0 °F38.0 °F40 %30.29 inSSW (200°)2.3 mph
11:00 AM55.2 °F37.6 °F52 %30.29 inSSW (200°)2.3 mph
12:00 PM57.4 °F40.1 °F53 %30.27 inSouth (190°)2.3 mph
1:00 PM55.8 °F42.1 °F60 %30.25 inSSW (200°)2.3 mph
2:00 PM57.7 °F43.2 °F58 %30.22 inSSW (210°)2.3 mph
3:00 PM55.9 °F43.5 °F63 %30.20 inSouth (180°)2.3 mph
4:00 PM55.9 °F40.5 °F56 %30.17 inSW (220°)1.2 mph
5:00 PM55.0 °F44.0 °F55 %30.14 inSouth (190°)2.3 mph
5:00 PM55.2 °F43.5 °F65 %30.14 inSouth (190°)2.3 mph
6:00 PM54.1 °F43.3 °F67 %30.12 inWSW (250°)2.3 mph
8:00 PM51.8 °F39.7 °F63 %30.09 inNorth (360°)2.3 mph
9:00 PM49.3 °F36.5 °F61 %30.09 inNorth (10°)2.3 mph
10:00 PM48.6 °F37.0 °F64 %30.09 inNorth (10°)2.3 mph
11:00 PM49.0 °F36.0 °F49 %30.07 inNorth4.6 mph
11:00 PM48.7 °F35.8 °F61 %30.07 inNorth (360°)4.6 mph
Hourly data recorded from CWWA, located miles away from Vancouver - City Hall, British Columbia







STORIES FROM OUR PARTNERS